Regional Weather Roundup
Issued by NWS

Home | Current Version | Previous Version | Graphics & Text | Print | Product List | Glossary On
Versions: 1 2 3 4 5 6 7 8 9 10 11 12 13 14 15 16 17 18 19 20 21 22 23 24 25 26 27 28 29 30 31 32 33 34 35 36 37 38 39 40 41 42 43 44 45 46 47 48 49 50
000
ASUS43 KOAX 272302
RWRNE

WEATHER ROUNDUP FOR NEBRASKA
NATIONAL WEATHER SERVICE OMAHA NE
600 PM CDT FRI MAR 27 2015

NOTES: SATELLITE DATA IS BEING USED TO AUGMENT CLOUD COVER ABOVE
       12000 FEET.
       "FAIR" INDICATES FEW OR NO CLOUDS BELOW 12,000 FEET WITH NO
       SIGNIFICANT WEATHER AND/OR OBSTRUCTIONS TO VISIBILITY.

  * THESE STATIONS DO NOT REPORT WEATHER SUCH AS RAIN...SNOW OR FOG.

NEZ001>004-019>022-054>056-280000-
NEBRASKA PANHANDLE

CITY           SKY/WX    TMP DP  RH WIND       PRES   REMARKS
SCOTTSBLUFF    SUNNY     72  32  23 NW21G29   29.97S
ALLIANCE       SUNNY     69  33  26 NW23G31   29.96S
CHADRON        MOSUNNY   68  33  27 NW21G32   29.93F
KIMBALL        PTSUNNY   67  29  24 NW17G26   30.01F
SIDNEY         MOSUNNY   68  32  26 NW16G24   30.00F
$$

NEZ057>060-069>072-079>082-280000-
SOUTHWEST NEBRASKA

CITY           SKY/WX    TMP DP  RH WIND       PRES   REMARKS
NORTH PLATTE   CLOUDY    66  33  29 N13       29.92S
IMPERIAL         N/A     69  35  28 N17       29.96F
LEXINGTON      CLOUDY    55  36  48 S13       29.97F
MCCOOK         MOSUNNY   68  36  30 SW9       29.94F
OGALLALA       PTSUNNY   67  36  31 N14G21    29.95S
$$

NEZ005>010-023>029-035>040-094-280000-
NORTH CENTRAL NEBRASKA

CITY           SKY/WX    TMP DP  RH WIND       PRES   REMARKS
VALENTINE      CLOUDY    62  34  35 N13       29.91S
AINSWORTH      PTSUNNY   60  38  44 NW5       29.91S
BROKEN BOW     CLOUDY    52  36  54 S12       29.95F
O`NEILL        MOSUNNY   40  32  74 SE18      29.98F WCI  31
ORD            PTSUNNY   48  29  47 S15       29.96F
$$

NEZ041-046>049-061>064-073>077-083>087-280000-
SOUTH CENTRAL NEBRASKA

CITY           SKY/WX    TMP DP  RH WIND       PRES   REMARKS
GRAND ISLAND   MOSUNNY   43  24  47 S16       30.04F
AURORA         PTSUNNY   42  24  48 S15       30.05F
HASTINGS       PTSUNNY   43  25  49 S12G22    30.03F
HEBRON         CLOUDY    41  21  45 S7        30.12F
HOLDREGE       CLOUDY    52  33  47 S12       29.99F
KEARNEY *      CLOUDY    48  30  49 S14       30.00F
YORK           CLOUDY    37  27  65 S12       30.08F WCI  30
$$

NEZ011>018-030>034-042>045-280000-
NORTHEAST NEBRASKA

CITY           SKY/WX    TMP DP  RH WIND       PRES   REMARKS
NORFOLK        CLOUDY    34  28  79 SE13      30.06F WCI  25
ALBION         CLOUDY    37  27  68 S16       30.05S WCI  27
BLAIR          CLOUDY    37  18  46 CALM      30.13F
COLUMBUS *     CLOUDY    36  23  60 S12       30.11F WCI  27
FREMONT        CLOUDY    37  23  55 S3        30.13F
TEKAMAH        CLOUDY    36  19  50 SW13G20   30.14F WCI  27
WAYNE          CLOUDY    34  27  76 S10       30.10F WCI  26
$$

NEZ050>053-065>068-078-088>093-280000-
SOUTHEAST NEBRASKA

CITY           SKY/WX    TMP DP  RH WIND       PRES   REMARKS
LINCOLN        CLOUDY    38  24  57 S6        30.14F WCI  33
OMAHA EPPLEY   CLOUDY    39  15  37 W13       30.15F WCI  31
BEATRICE       CLOUDY    38  22  51 CALM      30.14F
FALLS CITY     CLOUDY    40  18  41 NW5       30.17S
NEBRASKA CITY  CLOUDY    38  14  37 W6        30.16S WCI  33
PLATTSMOUTH    CLOUDY    37  12  35 SW5       30.15F WCI  34
$$

NEZ044-045-051>053-067-280000-
OMAHA AREA

CITY           SKY/WX    TMP DP  RH WIND       PRES   REMARKS
OMAHA EPPLEY   CLOUDY    39  15  37 W13       30.15F WCI  31
BLAIR          CLOUDY    37  18  46 CALM      30.13F
FREMONT        CLOUDY    37  23  55 S3        30.13F
MILLARD        CLOUDY    38  17  42 SW3       30.15S
OFFUTT AFB     CLOUDY    38  15  37 SW6       30.15F WCI  34
PLATTSMOUTH    CLOUDY    37  12  35 SW5       30.15F WCI  34
WAHOO          CLOUDY    37  22  53 S5        30.13F WCI  34
$$


USA.gov is the U.S. government's official web portal to all federal, state and local government web resources and services.